Regional Weather Roundup
Issued by NWS

Home | Current Version | Previous Version | Text Only | Print | Product List | Glossary Off
Versions: 1 2 3 4 5 6 7 8 9 10 11 12 13 14 15 16 17 18 19 20 21 22 23 24 25 26 27 28 29 30 31 32 33 34 35 36 37 38 39 40 41 42 43 44 45 46 47 48 49 50

000
ASUS45 KTFX 180410
RWRMT
MONTANA REGIONAL WEATHER ROUNDUP
NATIONAL WEATHER SERVICE GREAT FALLS MT
900 PM MST TUE JAN 17 2017

NOTE: "FAIR" INDICATES FEW OR NO CLOUDS BELOW 12000 FEET WITH NO
SIGNIFICANT WEATHER AND/OR OBSTRUCTIONS TO VISIBILITY.

MTZ001>007-043-180500-
WEST OF THE DIVIDE

CITY           SKY/WX    TMP DP  RH WIND       PRES   REMARKS
KALISPELL      CLOUDY    19  17  92 CALM      29.86F
MISSOULA       PTCLDY    15   8  73 SE6       29.94F WCI   6
BUTTE          CLOUDY    13   6  74 S5        29.91F
MULLAN PASS    CLOUDY    30  16  56 SE8       29.79F WCI  22
ANACONDA         N/A     36  16  44 SE14G24   29.87F WCI  27
DEER LODGE       N/A     16   9  73 CALM      29.90R
EUREKA           N/A     27  23  86 CALM      29.84F
HAMILTON         N/A     12   5  73 CALM      29.90F
RONAN            N/A      8   3  80 N1        29.90F
$$

MTZ008-052>055-180500-
SOUTHWEST MONTANA

CITY           SKY/WX    TMP DP  RH WIND       PRES   REMARKS
BOZEMAN        CLOUDY    13   7  77 SW9       29.92F WCI   1
DILLON         CLOUDY    27  11  51 SW15      29.98F WCI  15
W YELLOWSTONE  CLOUDY     0  -4  85 CALM      30.15R
ENNIS          CLEAR     27  16  63 S23G30    30.01F WCI  12
TWIN BRIDGES     N/A     18   6  59 SE6       29.98S WCI  10
$$

MTZ009-010-012-014-046-048-049-054-180500-
EAST SLOPES AND CENTRAL MONTANA

CITY           SKY/WX    TMP DP  RH WIND       PRES   REMARKS
CUT BANK       CLOUDY    42  26  53 S17       29.63S
GREAT FALLS    CLOUDY    37  23  56 S23       29.73F WCI  26
MALMSTROM AFB  CLOUDY    38  28  66 SW20      29.73F WCI  28
HELENA         CLOUDY    16   7  67 W9        29.92S WCI   4
AUGUSTA          N/A     35  26  69 S21G29    29.70F WCI  24
BOWMANS CRNR     N/A     31  19  61 S38       29.72F WCI  15
CHOTEAU          N/A     41  28  60 S10G17    29.70F
CONRAD           N/A     36  31  82 S9        29.72F WCI  29
POWER            N/A     39  24  55 SW25      29.70F WCI  28
RAYNESFORD       N/A     45  26  48 N3        29.74F
ULM              N/A     35  22  60 MISG      29.76F
$$

MTZ011-013-016-021-045-047-050-051-180500-
NORTH CENTRAL MONTANA

CITY           SKY/WX    TMP DP  RH WIND       PRES   REMARKS
HAVRE          CLOUDY    40  29  64 VRB5      29.66F
LEWISTOWN      CLOUDY    38  28  67 SW12      29.77F WCI  30
N BAR RANCH      N/A     43  30  61 W7        29.82S
CHINOOK          N/A     39  28  65 NW6       29.65F
DENTON           N/A     40  31  70 SE16      29.70F
FORT BENTON      N/A     45  27  49 MISG      29.72S
GEYSER           N/A     41  29  61 SW6       29.73F
GRASS RANGE      N/A     44  31  59 W20       29.72F
JUDITH GAP       N/A     42  26  54 SW25      29.82R
ROY              N/A     44  33  64 MISG      29.72S
STANFORD         N/A     46  29  53 S7        29.75F
WINIFRED         N/A     43  31  61 S5        29.73F
$$

MTZ017>020-022>027-061-062-180500-
NORTHEAST MONTANA

CITY           SKY/WX    TMP DP  RH WIND       PRES   REMARKS
GLASGOW        CLOUDY    29  22  75 SE10      29.69R WCI  20
JORDAN           N/A     38  28  67 W7        29.73F
SIDNEY         CLOUDY    29  22  75 SW17      29.74R WCI  17
WOLF POINT     CLOUDY    18  13  80 CALM      29.72R
PLENTYWOOD       N/A     39  28  65 SW7       29.67R
POPLAR           N/A     28  23  80 CALM      29.73R
$$

MTZ028>42-056>058-180500-
SOUTHCENTRAL AND SOUTHEAST MONTANA

CITY           SKY/WX    TMP DP  RH WIND       PRES   REMARKS
BAKER          CLOUDY    36  21  54 SW18      29.81S WCI  26
BILLINGS       CLOUDY    30  13  49 SW21      29.86F WCI  17
LIVINGSTON     CLOUDY    44  20  38 SW29G44   29.88F
MILES CITY     CLOUDY    28  17  63 SE7       29.82R WCI  21
BIG TIMBER     CLEAR     37  21  52 W16       29.91S WCI  28
FORSYTH          N/A     39  21  48 CALM      29.82R
HARLOWTON        N/A     40  21  48 W16       29.84R
LAUREL           N/A     26  11  53 S20       29.87S WCI  12
$$

REGIONAL REPORTS...DAKOTAS

CITY           SKY/WX    TMP DP  RH WIND       PRES   REMARKS
WILLISTON      CLOUDY    28  21  75 SE6       29.72S WCI  22
MINOT          CLOUDY    39  27  62 W24G30    29.64F WCI  28
DICKINSON      CLOUDY    31  21  66 W15       29.74S WCI  20
BEACH            N/A     37  23  56 W18G30    29.79F WCI  27
CROSBY           N/A     32  27  80 SW26G32   29.64F WCI  18
TIOGA            N/A     32  27  80 SW18      29.69S WCI  20
WATFORD CITY     N/A     32  25  74 SW13      29.72F WCI  22
BISMARCK       CLOUDY    30  19  63 SW6       29.76S WCI  24
GRAND FORKS    CLOUDY    21  15  78 S15       29.72F WCI   8
FARGO          CLOUDY    22  17  81 S14       29.82R WCI   9
BUFFALO SD       N/A     33  20  58 W13       29.76F WCI  24
RAPID CITY     CLOUDY    29  10  45 NW3       29.88F
$$

REGIONAL REPORTS...WYOMING/IDAHO/WASHINGTON

CITY           SKY/WX    TMP DP  RH WIND       PRES   REMARKS
GILLETTE       CLOUDY    37  20  50 SW18      29.89S WCI  27
SHERIDAN       CLOUDY    21  14  74 W6        29.87S WCI  13
BUFFALO WY     CLOUDY    36  20  52 SE5       29.90S
YELLOWSTONE LA   N/A     -1  -3  91 CALM      30.14R
IDAHO FALLS    CLOUDY     1  -3  83 N8        30.22S WCI -13
SALMON         CLOUDY    -8 -11  84 SE6       30.22F WCI -21
BOISE          CLEAR      6   2  83 W3        30.18F FOG
SPOKANE        FRZ RAIN  27  22  81 NE5       29.81F
$$

REGIONAL REPORTS...ALBERTA

CITY           SKY/WX    TMP DP  RH WIND       PRES   REMARKS
EDMONTON       MOCLDY    32  23  69 SW5       29.27S
CALGARY        MOCLDY    39  30  70 VRB2      29.42S
LETHBRIDGE     MOCLDY    36  32  87 SW5       29.55F
MEDICINE HAT   CLEAR     39  32  75 SW16G25   29.56R WCI  30
WATERTON GATE    N/A     46  28  49 SW29G41     N/A
CARDSTON         N/A     46  30  53 SW6         N/A
MILK RIVER       N/A     41  28  60 SW21G28     N/A
$$

REGIONAL REPORTS...SASKATCHEWAN

CITY           SKY/WX    TMP DP  RH WIND       PRES   REMARKS
SWIFT CURRENT  CLEAR     43  32  65 SW16G31   29.53S
REGINA         CLEAR     32  28  86 SW16      29.54S WCI  21
SASKATOON      CLEAR     34  28  80 SW10      29.44F WCI  26
ROCKGLEN         N/A     37  28  70 W20         N/A  WCI  27
ASSINIBOIA       N/A     32  28  86 S8          N/A  WCI  25
$$



USA.gov is the U.S. government's official web portal to all federal, state and local government web resources and services.